Flag for Canada Weather past 2 weeks in Whitehorse, Yukon Territory, Canada

Now
36 °F

Scattered showers. More clouds than sun.


Feels Like: 27 °F
Forecast: 31 / 40 °F
Wind: 12 mph from South

Location: Withehorse

Current Time: Mar 28, 2015 at 9:37:40 PM

Latest Report: Mar 28, 2015 at 9:00 PM


Visibility: 40 mi

Pressure: 29.63 "Hg

Humidity: 60%

Dew point: 23 °F

Location of WhitehorseLocation

Historic Weather in Whitehorse — Graph

°F

Whitehorse temperature yesterday

Maximum temperature yesterday: 41 °F (at 3:00 PM)
Minimum temperature yesterday: 28 °F (at 7:00 AM)
Average temperature yesterday: 35 °F

Past Weeks' High & Low Weather Summary

 TemperatureHumidityPressure
High43 °F (Mar 26, 3:00 PM)100% (Mar 18, 1:00 AM)30.23 "Hg (Mar 18, 1:00 AM)
Low-13 °F (Mar 15, 9:00 AM)30% (Mar 24, 6:00 PM)29.38 "Hg (Mar 13, 8:00 PM)
Average27 °F63%29.92 "Hg
* Reported Mar 13 8:00 PM — Mar 28 8:00 PM, Whitehorse, Weather by CustomWeather, © 2015

Note: Actual official high and low records may vary slightly from our data, if they occured in-between our weather recording intervals... More about our weather records

Advertising

Whitehorse weather history for previous 24 hours

 ConditionsComfort  
Time TempWeatherWind HumidityBarometerVisibility
8:00 PM
Sat, Mar 28
37 °FMostly cloudy.15 mph48%29.63 "Hg40 mi
7:00 PM39 °FMore clouds than sun.14 mph39%29.64 "Hg40 mi
6:00 PM39 °FCloudy.12 mph42%29.67 "Hg40 mi
5:00 PM39 °FCloudy.13 mph42%29.70 "Hg40 mi
4:00 PM39 °FCloudy.13 mph42%29.72 "Hg40 mi
3:00 PM39 °FBroken clouds.8 mph42%29.74 "Hg40 mi
2:00 PM37 °FBroken clouds.9 mph48%29.76 "Hg40 mi
1:00 PM36 °FBroken clouds.10 mph52%29.79 "Hg40 mi
12:00 PM32 °FBroken clouds.10 mph64%29.81 "Hg40 mi
11:00 AM28 °FPartly sunny.14 mph69%29.81 "Hg40 mi
10:00 AM25 °FBroken clouds.12 mph74%29.83 "Hg40 mi
9:00 AM23 °FScattered clouds.3 mph80%29.82 "Hg40 mi
8:00 AM23 °FPassing clouds.3 mph74%29.82 "Hg40 mi
7:00 AM21 °FPassing clouds.3 mph74%29.82 "Hg15 mi
6:00 AM23 °FClear.3 mph74%29.81 "Hg15 mi
5:00 AM21 °FClear.3 mph80%29.81 "Hg15 mi
4:00 AM23 °FClear.3 mph74%29.81 "Hg15 mi
3:00 AM28 °FClear.10 mph64%29.80 "Hg15 mi
2:00 AM28 °FClear.10 mph64%29.79 "Hg15 mi
1:00 AM30 °FClear.12 mph59%29.78 "Hg15 mi
12:00 AM30 °FClear.9 mph59%29.77 "Hg15 mi
11:00 PM
Fri, Mar 27
32 °FPassing clouds.2 mph55%29.76 "Hg15 mi
10:00 PM32 °FPassing clouds.No wind55%29.75 "Hg15 mi
9:00 PM36 °FPassing clouds.No wind44%29.74 "Hg40 mi
Weather by CustomWeather, © 2015

See weather overviewHow to use our weather pages